Preview of NWS' New Version of Forecast
This preview is not operational and should not be used for support decisions.

Regional Weather Roundup (RWR)

Issued by Philadelphia/Mt Holly (PHI)

                            
000
ASUS41 KPHI 190312
RWRPHI

REGIONAL WEATHER ROUNDUP
NATIONAL WEATHER SERVICE MOUNT HOLLY NJ
1000 PM EST FRI JAN 18 2019

NOTE:  "FAIR" INDICATES FEW OR NO CLOUDS BELOW 12,000 FEET WITH NO
SIGNIFICANT WEATHER AND/OR OBSTRUCTIONS TO VISIBILITY.

 * = STATION DOES NOT REPORT PRECIPITATION (E.G. RAIN, SNOW, ETC.) 
        OR FOG.

NJZ015>026-190400-
SOUTHERN NEW JERSEY
  
CITY           SKY/WX    TMP DP  RH WIND       PRES   REMARKS
POMONA         MOCLDY    32  32 100 W7        30.19R FOG     WCI  26  
WILDWOOD*      CLOUDY    36  34  92 NW3       30.20R                  
MILLVILLE      CLOUDY    33  32  96 CALM      30.18R FOG              
WRIGHTSTOWN    CLOUDY    33  32  93 W6        30.15R WCI  28          
MOUNT HOLLY    CLOUDY    34  31  88 W3        30.19R FOG              
TRENTON        CLOUDY    34  31  88 VRB3      30.17R FOG              

$$
NJZ001>014-190400-
NORTHERN NEW JERSEY
  
CITY           SKY/WX    TMP DP  RH WIND       PRES   REMARKS
SUSSEX         CLOUDY    34  25  69 VRB7      30.16R WCI  28          
ANDOVER*         N/A     30  28  92 CALM      30.15R                  
MORRISTOWN     CLOUDY    28  28 100 CALM      30.17R FOG              
NEWARK         MOCLDY    34  29  82 W9        30.17R WCI  27          
TETERBORO      CLOUDY    35  30  82 VRB6      30.16R WCI  30          
CALDWELL       CLOUDY    32  31  96 CALM      30.17R                  
SOMERVILLE     CLOUDY    29  29 100 CALM      30.16R FOG              
ALLAIRE*       CLOUDY    31  30  96 W6        30.18R FOG     WCI  25  
TOMS RIVER*    CLOUDY    29  29 100 SW3       30.19R FOG              

$$
PAZ043-044-047-054-055-060>062-066>071-190400-
EASTERN PENNSYLVANIA
  
CITY           SKY/WX    TMP DP  RH WIND       PRES   REMARKS
PHILADELPHIA   CLOUDY    35  30  82 W8        30.20R WCI  29          
NORTH PHILA    CLOUDY    36  30  79 W6        30.20R HAZE    WCI  31  
BLUE BELL*     CLOUDY    32  32 100 CALM      30.19R                  
DOYLESTOWN     CLOUDY    32  29  88 CALM      30.16R                  
QUAKERTOWN*    CLOUDY    28  28 100 CALM      30.17  FOG              
PERKASIE*      CLOUDY    32  32 100 CALM      30.16S FOG              
POTTSTOWN      CLOUDY    32  30  92 CALM      30.18R FOG              
LANCASTER      FAIR      32  29  88 NW5       30.18R FOG     WCI  27  
COATESVILLE    MOCLDY    32  30  93 CALM      30.18R FOG              
READING        MOCLDY    31  30  96 CALM      30.17R                  
ALLENTOWN      CLOUDY    34  28  79 CALM      30.16R                  
MOUNT POCONO   CLOUDY    27  19  72 NW17G24   30.07S WCI  14          
HAZLETON       CLOUDY   N/A N/A N/A NW5       30.13S                  
LEHIGHTON      CLOUDY    34  28  80 CALM      30.17R                  
WILKES BARRE   CLOUDY    32  21  64 N10       30.13R WCI  24          

$$
DEZALL-MDZ008-012-015-019-020-190400-
DELAWARE AND EASTERN MARYLAND
  
CITY           SKY/WX    TMP DP  RH WIND       PRES   REMARKS
WILMINGTON     CLOUDY    34  32  92 CALM      30.20R FOG              
DOVER          CLOUDY    35  33  92 W5        30.19R WCI  31          
GEORGETOWN     FAIR      34  30  85 CALM      30.20R FOG              
EASTON         CLOUDY    34  33  95 NE8       30.22F FOG     WCI  27  
PATUXENT       CLOUDY    36  36 100 CALM      30.20  FOG              
OCEAN CITY     FAIR      33  31  92 N7        30.20R WCI  27          
WALLOPS ISLAND CLOUDY    37  33  85 NW5       30.21R WCI  33          
CAMBRIDGE      CLOUDY    34  34 100 CALM      30.20S FOG              
SALISBURY      MOCLDY    31  31 100 S3        30.20R FOG              

$$
PAZ001-021-NYZ056-072-MDZ011-DCZ001-190400-
OTHER NEARBY LOCATIONS
  
CITY           SKY/WX    TMP DP  RH WIND       PRES   REMARKS
HARRISBURG     CLOUDY    34  31  88 NW5       30.18R FOG     WCI  30  
STATE COLLEGE  CLOUDY    32  25  74 NW3       30.15R                  
WILLIAMSPORT   CLOUDY    34  23  64 W3        30.15S                  
BINGHAMTON     CLOUDY    27  18  69 NW6       30.10R WCI  20          
NEW YORK CITY  MOCLDY    35  29  78 MISG      30.17R                  
BALTIMORE      CLOUDY    36  34  92 W3        30.19R                  
WASHINGTON DC  CLOUDY    39  34  82 S3        30.20S                  

$$